Welcome to the New NWS' Forecast!
Most changes are behind the scenes, but click here for differences you might notice.
Latest weather observations around

Greenville (KGNR)

Using English Units (Switch to International System of Units)
Date/ Time (EDT) Wind (mph) Vis. (mi) Weather Sky Cond. Temp (°F) Rel. Humidity Wind Chill (°F) Heat Index (°F) Pressure Precip. (in)
Air Dwpt 6 hour Altimeter (inHg) Sea level (inHg) 1 hr 3 hr 6 hr
Max Min
Aug 16 23:56 NW 6   Clear   58 52     81%     30.1 30.1      
Aug 16 22:56 NW 6   Clear   60 53     78%     30.09 30.09      
Aug 16 21:56 NW 6   Clear   60 53     78%     30.09 30.09      
Aug 16 20:56 NW 7   Clear   61 53     75%     30.08 30.08      
Aug 16 19:56 WNW 5   Clear   63 53     70%     30.06 30.06      
Aug 16 18:56 WNW 6   Clear   65 52     63%     30.04 30.04      
Aug 16 17:56 6   Clear   69 51     53%     30.03 30.02      
Aug 16 16:56 NW 10   Clear   69 50     51%     30.02 30.01      
Aug 16 15:56 WNW 9   Clear   69 50     51%     30.01 30      
Aug 16 14:56 NNW 11   Clear   70 52     53%     30.01 30      
Aug 16 13:56 NNW 13   Clear   70 53     55%     30 29.99      
Aug 16 12:56 N 15   Clear   69 52     54%     29.99 29.98      
Aug 16 11:56 NNW 15   Clear   67 53     61%     29.99 29.98      
Aug 16 10:56 NNW 9   Clear   67 54     63%     29.98 29.97      
Aug 16 09:56 NW 10   Clear   65 53     65%     29.98 29.97      
Aug 16 08:56 NW 9   Clear   63 55     75%     29.97 29.96      
Aug 16 07:56 NNW 9   Clear   63 58     84%     29.96 29.95      
Aug 16 06:56 NNW 7   Clear   61 59     93%     29.95 29.94      
Aug 16 05:56 NW 5   Clear   63 61     93%     29.93 29.92      
Aug 16 04:56 NW 7   Clear   63 62     97%     29.91 29.9      
Aug 16 03:56 NNW 6   Clear   64 62     93%     29.9 29.89      
Aug 16 02:56 NW 3   Clear   65 62     90%     29.88 29.87      
Aug 16 01:56 NNW 7   Clear   66 62     87%     29.88 29.86     0
Aug 16 00:56 NW 8   Clear   66 64     93%     29.89 29.87      
Aug 15 23:56 WNW 5   Clear   67 65     93%     29.9 29.88      
Aug 15 22:56 NNW 6   Clear   67 64     90%     29.89 29.87   0  
Aug 15 21:56 NW 5   Clear   67 65     93%     29.89 29.87      
Aug 15 20:56 NNW 6   Clear   69 66     90%     29.88 29.86 0    
Aug 15 19:56 N 6   Clear   70 65     84%     29.85 29.84     0
Aug 15 18:56 NW 5   Clear   70 65     84%     29.84 29.83      
Aug 15 17:56 5   Clear   71 65     81%   72 29.83 29.81      
Aug 15 16:56 N 6   Clear   72 65     79%   73 29.8 29.79   0  
Aug 15 15:56 6   Clear   66 63     90%     29.83 29.82      
Aug 15 14:56 Calm   Clear   76 66     71%   77 29.81 29.8 0    
Aug 15 13:56 S 5   Clear   76 67     74%   77 29.81 29.79      
Aug 15 12:56 3   Clear   76 68     76%   77 29.82 29.8      
Aug 15 11:56 SW 3   Clear   78 67     69%   79 29.82 29.8      
Aug 15 10:56 Calm   Clear   74 67     79%   75 29.84 29.82      
Aug 15 09:56 SSW 6   Clear   71 66     84%   72 29.84 29.83      
Aug 15 08:56 SSW 3   Clear   69 66     90%     29.83 29.82      
Aug 15 07:56 3   Clear   67 65     93%     29.84 29.83      
Aug 15 06:56 SSE 5   Clear   67 66     97%     29.82 29.81      
Aug 15 05:56 Calm   Clear   66 65     96%     29.82 29.81      
Aug 15 04:56 Calm   Clear   67 65     93%     29.82 29.8      
Aug 15 03:56 Calm   Clear   67 66     97%     29.81 29.8      
Aug 15 02:56 Calm   Clear   67 67     100%     29.83 29.82      
Aug 15 01:56 SSW 3   Clear   68 67     96%     29.84 29.83      
Aug 15 00:56 Calm   Clear   68 67     96%     29.85 29.83      
Aug 14 23:56 Calm   Clear   68 67     96%     29.85 29.84      
Aug 14 22:56 Calm   Clear   68 67     96%     29.86 29.84      
Aug 14 21:56 Calm   Clear   68 67     96%     29.86 29.85      
Aug 14 20:56 Calm   Clear   69 68     96%     29.86 29.85      
Aug 14 19:56 Calm   Clear   69 69     100%     29.85 29.84     0
Aug 14 18:56 3   Clear   71 69     93%   72 29.85 29.84      
Aug 14 17:56 Calm   Clear   72 70     93%   73 29.87 29.85      
Aug 14 16:56 5   Clear   71 69     93%   72 29.87 29.86   0  
Aug 14 15:56 SE 7   Clear   70 69     97%     29.89 29.88 0    
Aug 14 14:56 SSE 6   Clear   70 69     97%     29.91 29.9      
Aug 14 13:56 SSE 5   Clear   72 68     87%   73 29.92 29.91     0
Aug 14 12:56 SE 6   Clear   69 68     96%     29.94 29.93 0    
Aug 14 11:56 SE 7   Clear   69 67     93%     29.96 29.95      
Aug 14 10:56 SSE 5   Clear   69 67     93%     29.96 29.95      
Aug 14 09:56 SE 6   Clear   67 67     100%     29.97 29.96      
Aug 14 08:56 SE 6   Clear   66 66     100%     29.97 29.96      
Aug 14 07:56 3   Clear   66 66     100%     29.98 29.96      
Aug 14 06:56 SE 5   Clear   66 66     100%     29.97 29.96      
Aug 14 05:56 ESE 6   Clear   65 65     100%     29.97 29.96      
Aug 14 03:56 SE 5   Clear   66 65     96%     29.99 29.97      
Aug 14 02:56 Calm   Clear   67 66     97%     30 29.98      
Aug 14 01:56 Calm   Clear   67 66     97%     30.01 30      
Aug 14 00:56 Calm   Clear   67 66     97%     30.02 30.01      
May 15 06:56 SSE 3   Clear   57 47     69%     29.75 29.75      
May 13 14:56 S 9   Clear   65 23     20%     30.02 30.04      
May 13 09:56 3   Clear   56 26     31%     30.13 30.15      
May 12 18:56 NW 11   Clear   56 24     29%     30.01 30.03      
May 12 03:56 NNW 5   Clear   33 21     61% 29   30.11 30.15      
May 11 22:56 WNW 5   Clear   37 24     59% 33   30.08 30.12      
May 11 18:56 WNW 9   Clear   45 22     40% 40   30 30.03      
May 11 08:56     Clear   35 24     64%     29.85 29.88      
Jun 11 22:56 6   Clear   76 61     60%   76 29.85 29.82      
Jun 11 18:56 6   Clear   82 57     43%   82 29.78 29.76      
Jun 10 13:56 5   Clear   71 37     29%   69 29.9 29.9      
Jun 10 05:56 6   Clear   48 41     77% 45   29.84 29.85      
Notice The following observation data may not be complete
Jun 08 11:56     Clear            %              
Jun 06 08:56 ENE 6   Clear   48 39     71% 45   29.97 29.99      
Jun 06 06:56 E 9   Clear   44 39     82% 39   29.98 30      
Notice The following observation data may not be complete
Jun 06 02:56     Clear            %